Time,TemperatureF,DewpointF,PressureIn,WindDirection,WindDirectionDegrees,WindSpeedMPH,WindSpeedGustMPH,Humidity,HourlyPrecipIn,Conditions,Clouds,dailyrainin,SoftwareType,DateUTC
2013-01-24 00:00:00,14.0,9.0,30.21,North,0,10.1,12.3,80,0.00,,CLR,0.00,VWS V14.01,2013-01-24 05:00:00,
2013-01-24 00:03:00,14.0,9.0,30.21,NNE,22,7.6,12.3,80,0.00,,CLR,0.00,VWS V14.01,2013-01-24 05:03:00,
2013-01-24 00:04:00,13.8,8.8,30.21,North,0,6.3,12.3,80,0.00,,CLR,0.00,VWS V14.01,2013-01-24 05:04:00,
2013-01-24 00:08:00,13.6,8.6,30.21,North,0,7.8,12.3,80,0.00,,CLR,0.00,VWS V14.01,2013-01-24 05:08:00,
2013-01-24 00:13:00,13.5,8.4,30.21,North,0,7.8,12.3,80,0.00,,CLR,0.00,VWS V14.01,2013-01-24 05:13:00,
2013-01-24 00:18:00,12.9,7.9,30.21,NNW,338,5.8,12.3,80,0.00,,CLR,0.00,VWS V14.01,2013-01-24 05:18:00,
2013-01-24 00:23:00,12.7,7.8,30.21,North,0,6.5,12.3,80,0.00,,CLR,0.00,VWS V14.01,2013-01-24 05:23:00,
2013-01-24 00:28:00,11.8,6.9,30.21,NNE,22,5.4,12.3,80,0.00,,CLR,0.00,VWS V14.01,2013-01-24 05:28:00,
2013-01-24 00:33:00,11.3,6.3,30.18,NNE,22,6.0,12.3,80,0.00,,CLR,0.00,VWS V14.01,2013-01-24 05:33:00,
2013-01-24 00:38:00,10.4,5.5,30.18,North,0,4.9,12.3,80,0.00,,CLR,0.00,VWS V14.01,2013-01-24 05:38:00,
2013-01-24 00:43:00,10.0,5.1,30.18,North,0,4.0,12.3,80,0.00,,CLR,0.00,VWS V14.01,2013-01-24 05:43:00,
2013-01-24 00:48:00,9.5,4.6,30.21,NNE,22,4.9,12.3,80,0.00,,CLR,0.00,VWS V14.01,2013-01-24 05:48:00,
2013-01-24 00:53:00,9.3,4.4,30.21,NW,315,2.9,12.3,80,0.00,,CLR,0.00,VWS V14.01,2013-01-24 05:53:00,
2013-01-24 00:58:00,9.1,4.2,30.21,NW,315,2.5,12.3,80,0.00,,CLR,0.00,VWS V14.01,2013-01-24 05:58:00,
2013-01-24 01:00:00,7.3,2.5,30.27,WNW,292,3.4,8.1,80,0.00,,CLR,0.00,VWS V14.01,2013-01-24 06:00:00,
2013-01-24 01:03:00,9.3,4.4,30.24,NNW,338,3.6,12.3,80,0.00,,CLR,0.00,VWS V14.01,2013-01-24 06:03:00,
2013-01-24 01:08:00,9.1,4.2,30.24,NW,315,4.0,5.8,80,0.00,,CLR,0.00,VWS V14.01,2013-01-24 06:08:00,
2013-01-24 01:13:00,9.1,4.2,30.24,NNW,338,5.6,5.8,80,0.00,,CLR,0.00,VWS V14.01,2013-01-24 06:13:00,
2013-01-24 01:18:00,8.2,3.4,30.24,NNW,338,3.4,5.8,80,0.00,,CLR,0.00,VWS V14.01,2013-01-24 06:18:00,
2013-01-24 01:23:00,7.5,2.7,30.24,NW,315,2.5,5.8,80,0.00,,CLR,0.00,VWS V14.01,2013-01-24 06:23:00,
2013-01-24 01:28:00,7.2,2.3,30.24,NW,315,2.5,5.8,80,0.00,,CLR,0.00,VWS V14.01,2013-01-24 06:28:00,
2013-01-24 01:34:00,7.0,2.1,30.27,NNW,338,4.5,5.8,80,0.00,,CLR,0.00,VWS V14.01,2013-01-24 06:34:00,
2013-01-24 01:39:00,7.0,2.1,30.27,NNW,338,4.0,5.8,80,0.00,,CLR,0.00,VWS V14.01,2013-01-24 06:39:00,
2013-01-24 01:44:00,7.7,2.8,30.27,NNW,338,5.8,8.1,80,0.00,,CLR,0.00,VWS V14.01,2013-01-24 06:44:00,
2013-01-24 01:49:00,7.7,2.8,30.27,NW,315,6.0,8.1,80,0.00,,CLR,0.00,VWS V14.01,2013-01-24 06:49:00,
2013-01-24 01:54:00,7.7,2.8,30.27,NNW,338,7.4,8.1,80,0.00,,CLR,0.00,VWS V14.01,2013-01-24 06:54:00,
2013-01-24 01:59:00,8.1,3.2,30.27,NW,315,5.4,8.1,80,0.00,,CLR,0.00,VWS V14.01,2013-01-24 06:59:00,
2013-01-24 02:00:00,5.5,0.7,30.33,NW,315,3.1,7.2,80,0.00,,CLR,0.00,VWS V14.01,2013-01-24 07:00:00,
2013-01-24 02:04:00,7.7,2.8,30.27,WSW,248,4.0,8.1,80,0.00,,CLR,0.00,VWS V14.01,2013-01-24 07:04:00,
2013-01-24 02:09:00,7.2,2.3,30.27,NNW,338,4.0,4.3,80,0.00,,CLR,0.00,VWS V14.01,2013-01-24 07:09:00,
2013-01-24 02:14:00,6.8,2.0,30.27,NW,315,4.9,6.3,80,0.00,,CLR,0.00,VWS V14.01,2013-01-24 07:14:00,
2013-01-24 02:19:00,6.6,1.8,30.30,NNW,338,5.4,6.3,80,0.00,,CLR,0.00,VWS V14.01,2013-01-24 07:19:00,
2013-01-24 02:24:00,6.3,1.4,30.30,NNW,338,3.4,6.3,80,0.00,,CLR,0.00,VWS V14.01,2013-01-24 07:24:00,
2013-01-24 02:29:00,5.9,1.1,30.30,NNW,338,4.9,6.3,80,0.00,,CLR,0.00,VWS V14.01,2013-01-24 07:29:00,
2013-01-24 02:34:00,5.9,1.1,30.33,NNW,338,4.7,6.5,80,0.00,,CLR,0.00,VWS V14.01,2013-01-24 07:34:00,
2013-01-24 02:39:00,5.9,1.1,30.33,NNW,338,4.0,6.5,80,0.00,,CLR,0.00,VWS V14.01,2013-01-24 07:39:00,
2013-01-24 02:44:00,6.1,1.2,30.33,NW,315,3.8,6.5,80,0.00,,CLR,0.00,VWS V14.01,2013-01-24 07:44:00,
2013-01-24 02:50:00,6.1,1.2,30.33,NNW,338,4.7,6.5,80,0.00,,CLR,0.00,VWS V14.01,2013-01-24 07:50:00,
2013-01-24 02:55:00,5.7,0.9,30.33,NW,315,5.4,6.5,80,0.00,,CLR,0.00,VWS V14.01,2013-01-24 07:55:00,
2013-01-24 03:00:00,5.4,0.5,30.33,WNW,292,4.3,6.5,80,0.00,,CLR,0.00,VWS V14.01,2013-01-24 08:00:00,
2013-01-24 03:05:00,5.4,0.5,30.33,NNW,338,3.6,6.5,80,0.00,,CLR,0.00,VWS V14.01,2013-01-24 08:05:00,
2013-01-24 03:10:00,5.5,0.7,30.33,NNW,338,3.4,5.6,80,0.00,,CLR,0.00,VWS V14.01,2013-01-24 08:10:00,
2013-01-24 03:15:00,5.4,0.5,30.33,NW,315,3.1,5.6,80,0.00,,CLR,0.00,VWS V14.01,2013-01-24 08:15:00,
2013-01-24 03:20:00,5.2,0.4,30.33,NW,315,3.8,6.5,80,0.00,,CLR,0.00,VWS V14.01,2013-01-24 08:20:00,
2013-01-24 03:25:00,4.5,-0.3,30.33,NNW,338,4.3,6.5,80,0.00,,CLR,0.00,VWS V14.01,2013-01-24 08:25:00,
2013-01-24 03:30:00,4.3,-0.5,30.33,WNW,292,2.7,6.5,80,0.00,,CLR,0.00,VWS V14.01,2013-01-24 08:30:00,
2013-01-24 03:35:00,4.1,-0.7,30.36,WNW,292,2.9,6.5,80,0.00,,CLR,0.00,VWS V14.01,2013-01-24 08:35:00,
2013-01-24 03:40:00,3.7,-1.0,30.36,WNW,292,2.2,6.5,80,0.00,,CLR,0.00,VWS V14.01,2013-01-24 08:40:00,
2013-01-24 03:45:00,2.8,-1.9,30.36,WNW,292,2.0,6.5,80,0.00,,CLR,0.00,VWS V14.01,2013-01-24 08:45:00,
2013-01-24 03:50:00,2.8,-1.9,30.36,WNW,292,2.9,6.5,80,0.00,,CLR,0.00,VWS V14.01,2013-01-24 08:50:00,
2013-01-24 03:55:00,2.8,-1.9,30.36,NNW,338,2.7,6.5,80,0.00,,CLR,0.00,VWS V14.01,2013-01-24 08:55:00,
2013-01-24 04:00:00,2.8,-1.9,30.36,WNW,292,3.1,6.5,80,0.00,,CLR,0.00,VWS V14.01,2013-01-24 09:00:00,
2013-01-24 04:06:00,2.8,-1.9,30.39,WNW,292,3.8,6.5,80,0.00,,CLR,0.00,VWS V14.01,2013-01-24 09:06:00,
2013-01-24 04:11:00,2.8,-1.9,30.39,WNW,292,2.5,3.8,80,0.00,,CLR,0.00,VWS V14.01,2013-01-24 09:11:00,
2013-01-24 04:16:00,2.5,-2.3,30.36,WNW,292,3.4,3.8,80,0.00,,CLR,0.00,VWS V14.01,2013-01-24 09:16:00,
2013-01-24 04:21:00,2.3,-2.4,30.36,WNW,292,2.5,3.8,80,0.00,,CLR,0.00,VWS V14.01,2013-01-24 09:21:00,
2013-01-24 04:26:00,2.3,-2.4,30.36,NW,315,3.4,3.8,80,0.00,,CLR,0.00,VWS V14.01,2013-01-24 09:26:00,
2013-01-24 04:31:00,2.3,-2.4,30.39,WNW,292,2.0,3.8,80,0.00,,CLR,0.00,VWS V14.01,2013-01-24 09:31:00,
2013-01-24 04:36:00,2.3,-2.4,30.39,WNW,292,2.5,3.8,80,0.00,,CLR,0.00,VWS V14.01,2013-01-24 09:36:00,
2013-01-24 04:41:00,2.5,-2.3,30.39,NNW,338,2.7,3.8,80,0.00,,CLR,0.00,VWS V14.01,2013-01-24 09:41:00,
2013-01-24 04:46:00,2.3,-2.4,30.39,NW,315,2.9,3.8,80,0.00,,CLR,0.00,VWS V14.01,2013-01-24 09:46:00,
2013-01-24 04:51:00,2.7,-2.1,30.41,West,270,4.3,5.4,80,0.00,,CLR,0.00,VWS V14.01,2013-01-24 09:51:00,
2013-01-24 04:56:00,3.4,-1.4,30.41,WNW,292,4.5,5.6,80,0.00,,CLR,0.00,VWS V14.01,2013-01-24 09:56:00,
2013-01-24 05:00:00,1.9,-2.8,30.47,NNW,338,3.4,4.9,80,0.00,,CLR,0.00,VWS V14.01,2013-01-24 10:00:00,
2013-01-24 05:01:00,3.6,-1.2,30.44,WNW,292,4.3,6.0,80,0.00,,CLR,0.00,VWS V14.01,2013-01-24 10:01:00,
2013-01-24 05:06:00,3.2,-1.6,30.44,NW,315,3.6,6.0,80,0.00,,CLR,0.00,VWS V14.01,2013-01-24 10:06:00,
2013-01-24 05:11:00,2.8,-1.9,30.44,NW,315,4.0,4.9,80,0.00,,CLR,0.00,VWS V14.01,2013-01-24 10:11:00,
2013-01-24 05:16:00,2.8,-1.9,30.44,WNW,292,4.3,4.9,80,0.00,,CLR,0.00,VWS V14.01,2013-01-24 10:16:00,
2013-01-24 05:21:00,2.7,-2.1,30.44,WNW,292,2.7,4.9,80,0.00,,CLR,0.00,VWS V14.01,2013-01-24 10:21:00,
2013-01-24 05:27:00,2.5,-2.3,30.44,WNW,292,2.5,4.9,80,0.00,,CLR,0.00,VWS V14.01,2013-01-24 10:27:00,
2013-01-24 05:32:00,2.5,-2.3,30.44,WNW,292,3.4,4.9,80,0.00,,CLR,0.00,VWS V14.01,2013-01-24 10:32:00,
2013-01-24 05:37:00,2.5,-2.3,30.44,WNW,292,4.3,4.9,80,0.00,,CLR,0.00,VWS V14.01,2013-01-24 10:37:00,
2013-01-24 05:42:00,2.5,-2.3,30.44,NW,315,3.1,4.9,80,0.00,,CLR,0.00,VWS V14.01,2013-01-24 10:42:00,
2013-01-24 05:47:00,2.5,-2.3,30.44,NW,315,3.4,4.9,80,0.00,,CLR,0.00,VWS V14.01,2013-01-24 10:47:00,
2013-01-24 05:52:00,2.3,-2.4,30.44,NW,315,3.1,4.9,80,0.00,,CLR,0.00,VWS V14.01,2013-01-24 10:52:00,
2013-01-24 05:57:00,2.1,-2.6,30.44,WNW,292,2.0,4.9,80,0.00,,CLR,0.00,VWS V14.01,2013-01-24 10:57:00,
2013-01-24 06:00:00,0.3,-4.4,30.50,NNW,338,2.5,3.8,80,0.00,,CLR,0.00,VWS V14.01,2013-01-24 11:00:00,
2013-01-24 06:02:00,1.9,-2.8,30.47,NNW,338,3.4,4.9,80,0.00,,CLR,0.00,VWS V14.01,2013-01-24 11:02:00,
2013-01-24 06:07:00,1.9,-2.8,30.47,NW,315,3.8,3.8,80,0.00,,CLR,0.00,VWS V14.01,2013-01-24 11:07:00,
2013-01-24 06:12:00,1.9,-2.8,30.47,WNW,292,3.6,3.8,80,0.00,,CLR,0.00,VWS V14.01,2013-01-24 11:12:00,
2013-01-24 06:17:00,1.9,-2.8,30.47,WNW,292,2.7,3.8,80,0.00,,CLR,0.00,VWS V14.01,2013-01-24 11:17:00,
2013-01-24 06:22:00,1.9,-2.8,30.47,West,270,3.1,3.8,80,0.00,,CLR,0.00,VWS V14.01,2013-01-24 11:22:00,
2013-01-24 06:27:00,1.6,-3.2,30.47,West,270,0.0,3.8,80,0.00,,CLR,0.00,VWS V14.01,2013-01-24 11:27:00,
2013-01-24 06:32:00,1.0,-3.7,30.50,WNW,292,2.5,3.8,80,0.00,,CLR,0.00,VWS V14.01,2013-01-24 11:32:00,
2013-01-24 06:37:00,1.2,-3.5,30.50,NW,315,3.1,3.8,80,0.00,,CLR,0.00,VWS V14.01,2013-01-24 11:37:00,
2013-01-24 06:42:00,1.2,-3.5,30.50,WNW,292,2.7,3.8,80,0.00,,CLR,0.00,VWS V14.01,2013-01-24 11:42:00,
2013-01-24 06:47:00,1.2,-3.5,30.50,WNW,292,3.6,3.8,80,0.00,,CLR,0.00,VWS V14.01,2013-01-24 11:47:00,
2013-01-24 06:52:00,1.2,-3.5,30.50,NW,315,2.5,3.8,80,0.00,,CLR,0.00,VWS V14.01,2013-01-24 11:52:00,
2013-01-24 06:57:00,0.7,-4.0,30.50,West,270,1.3,3.8,80,0.00,,CLR,0.00,VWS V14.01,2013-01-24 11:57:00,
2013-01-24 07:02:00,0.3,-4.4,30.50,West,270,2.5,3.8,80,0.00,,CLR,0.00,VWS V14.01,2013-01-24 12:02:00,
2013-01-24 07:07:00,0.3,-4.4,30.50,NNW,338,0.0,2.5,80,0.00,,CLR,0.00,VWS V14.01,2013-01-24 12:07:00,
2013-01-24 07:12:00,-0.2,-4.9,30.50,West,270,1.1,2.5,80,0.00,,CLR,0.00,VWS V14.01,2013-01-24 12:12:00,
2013-01-24 07:18:00,-0.8,-5.4,30.53,NW,315,0.0,2.5,80,0.00,,CLR,0.00,VWS V14.01,2013-01-24 12:18:00,
2013-01-24 07:23:00,-0.9,-5.6,30.53,West,270,0.0,2.5,80,0.00,,CLR,0.00,VWS V14.01,2013-01-24 12:23:00,
2013-01-24 07:28:00,-1.1,-5.8,30.53,WNW,292,1.6,2.5,80,0.00,,CLR,0.00,VWS V14.01,2013-01-24 12:28:00,
2013-01-24 07:33:00,-1.3,-6.0,30.56,NW,315,2.7,2.7,80,0.00,,CLR,0.00,VWS V14.01,2013-01-24 12:33:00,
2013-01-24 07:38:00,-0.6,-5.3,30.56,West,270,2.7,3.4,80,0.00,,CLR,0.00,VWS V14.01,2013-01-24 12:38:00,
2013-01-24 07:43:00,0.0,-4.7,30.56,WSW,248,2.9,3.4,80,0.00,,CLR,0.00,VWS V14.01,2013-01-24 12:43:00,
2013-01-24 07:48:00,0.1,-4.6,30.56,WNW,292,3.1,3.8,80,0.00,,CLR,0.00,VWS V14.01,2013-01-24 12:48:00,
2013-01-24 07:53:00,0.7,-4.0,30.56,West,270,3.4,4.7,80,0.00,,CLR,0.00,VWS V14.01,2013-01-24 12:53:00,
2013-01-24 07:58:00,0.7,-4.0,30.56,WNW,292,3.1,4.7,80,0.00,,CLR,0.00,VWS V14.01,2013-01-24 12:58:00,
2013-01-24 08:00:00,8.1,3.2,30.53,NNE,22,4.3,6.3,80,0.00,,CLR,0.00,VWS V14.01,2013-01-24 13:00:00,
2013-01-24 08:03:00,0.7,-4.0,30.56,NNW,338,3.1,4.7,80,0.00,,CLR,0.00,VWS V14.01,2013-01-24 13:03:00,
2013-01-24 08:08:00,0.7,-4.0,30.56,WNW,292,2.7,4.7,80,0.00,,CLR,0.00,VWS V14.01,2013-01-24 13:08:00,
2013-01-24 08:13:00,1.2,-3.5,30.56,NW,315,3.4,4.7,80,0.00,,CLR,0.00,VWS V14.01,2013-01-24 13:13:00,
2013-01-24 08:18:00,1.2,-3.5,30.56,WNW,292,2.5,4.7,80,0.00,,CLR,0.00,VWS V14.01,2013-01-24 13:18:00,
2013-01-24 08:23:00,2.1,-2.6,30.56,NW,315,2.5,4.7,80,0.00,,CLR,0.00,VWS V14.01,2013-01-24 13:23:00,
2013-01-24 08:30:00,3.2,-1.6,30.56,NNW,338,3.1,4.7,80,0.00,,CLR,0.00,VWS V14.01,2013-01-24 13:30:00,
2013-01-24 08:35:00,4.5,-0.3,30.56,NNW,338,2.9,4.7,80,0.00,,CLR,0.00,VWS V14.01,2013-01-24 13:35:00,
2013-01-24 08:40:00,5.2,0.4,30.56,NNW,338,3.4,5.4,80,0.00,,CLR,0.00,VWS V14.01,2013-01-24 13:40:00,
2013-01-24 08:45:00,5.7,0.9,30.56,NNW,338,3.4,5.6,80,0.00,,CLR,0.00,VWS V14.01,2013-01-24 13:45:00,
2013-01-24 08:50:00,6.3,1.4,30.53,NNW,338,4.7,5.6,80,0.00,,CLR,0.00,VWS V14.01,2013-01-24 13:50:00,
2013-01-24 08:55:00,6.8,2.0,30.53,NNW,338,3.8,5.6,80,0.00,,CLR,0.00,VWS V14.01,2013-01-24 13:55:00,
2013-01-24 09:00:00,7.3,2.5,30.53,NNW,338,4.3,6.3,80,0.00,,CLR,0.00,VWS V14.01,2013-01-24 14:00:00,
2013-01-24 09:05:00,7.9,3.0,30.53,NNW,338,5.4,6.3,80,0.00,,CLR,0.00,VWS V14.01,2013-01-24 14:05:00,
2013-01-24 09:10:00,8.4,3.5,30.53,NE,45,2.7,5.4,80,0.00,,CLR,0.00,VWS V14.01,2013-01-24 14:10:00,
2013-01-24 09:15:00,8.6,3.7,30.53,North,0,3.4,6.7,80,0.00,,CLR,0.00,VWS V14.01,2013-01-24 14:15:00,
2013-01-24 09:20:00,9.0,4.1,30.56,NNE,22,6.3,6.7,80,0.00,,CLR,0.00,VWS V14.01,2013-01-24 14:20:00,
2013-01-24 09:25:00,9.3,4.4,30.56,NNW,338,3.8,6.7,80,0.00,,CLR,0.00,VWS V14.01,2013-01-24 14:25:00,
2013-01-24 09:30:00,9.5,4.6,30.56,ENE,68,4.3,6.7,80,0.00,,CLR,0.00,VWS V14.01,2013-01-24 14:30:00,
2013-01-24 09:35:00,10.2,5.3,30.59,NNW,338,3.6,6.7,80,0.00,,CLR,0.00,VWS V14.01,2013-01-24 14:35:00,
2013-01-24 09:40:00,10.9,6.0,30.59,NW,315,4.7,6.7,80,0.00,,CLR,0.00,VWS V14.01,2013-01-24 14:40:00,
2013-01-24 09:45:00,11.8,6.9,30.59,NNW,338,4.7,6.7,80,0.00,,CLR,0.00,VWS V14.01,2013-01-24 14:45:00,
2013-01-24 09:50:00,12.6,7.6,30.59,NW,315,3.6,6.7,80,0.00,,CLR,0.00,VWS V14.01,2013-01-24 14:50:00,
2013-01-24 09:55:00,13.3,8.3,30.59,NNW,338,4.0,6.7,80,0.00,,CLR,0.00,VWS V14.01,2013-01-24 14:55:00,
2013-01-24 10:00:00,14.2,-1.9,30.62,NNW,338,3.6,6.7,48,0.00,,CLR,0.00,VWS V14.01,2013-01-24 15:00:00,
2013-01-24 10:05:00,14.2,-2.8,30.62,NE,45,4.9,7.6,46,0.00,,CLR,0.00,VWS V14.01,2013-01-24 15:05:00,
2013-01-24 10:10:00,14.5,-2.5,30.62,NNW,338,5.8,5.8,46,0.00,,CLR,0.00,VWS V14.01,2013-01-24 15:10:00,
2013-01-24 10:15:00,14.5,-2.9,30.62,NNW,338,3.8,6.0,45,0.00,,CLR,0.00,VWS V14.01,2013-01-24 15:15:00,
2013-01-24 10:20:00,14.9,-2.6,30.62,NW,315,5.4,6.5,45,0.00,,CLR,0.00,VWS V14.01,2013-01-24 15:20:00,
2013-01-24 10:25:00,15.8,-1.8,30.62,NW,315,4.3,6.5,45,0.00,,CLR,0.00,VWS V14.01,2013-01-24 15:25:00,
2013-01-24 10:30:00,16.0,-2.1,30.62,NW,315,3.6,6.5,44,0.00,,CLR,0.00,VWS V14.01,2013-01-24 15:30:00,
2013-01-24 10:36:00,16.0,-2.1,30.62,NNW,338,6.0,6.5,44,0.00,,CLR,0.00,VWS V14.01,2013-01-24 15:36:00,
2013-01-24 10:41:00,16.7,-1.4,30.62,North,0,7.4,7.4,44,0.00,,CLR,0.00,VWS V14.01,2013-01-24 15:41:00,
2013-01-24 10:46:00,17.4,-1.2,30.62,NNW,338,3.8,7.4,43,0.00,,CLR,0.00,VWS V14.01,2013-01-24 15:46:00,
2013-01-24 10:51:00,17.8,-1.4,30.62,NNE,22,5.6,7.4,42,0.00,,CLR,0.00,VWS V14.01,2013-01-24 15:51:00,
2013-01-24 10:56:00,17.2,-1.4,30.62,North,0,3.8,7.4,43,0.00,,CLR,0.00,VWS V14.01,2013-01-24 15:56:00,
2013-01-24 11:00:00,20.7,-2.7,30.62,NNE,22,4.7,6.5,35,0.00,,CLR,0.00,VWS V14.01,2013-01-24 16:00:00,
2013-01-24 11:01:00,17.6,-1.6,30.62,North,0,5.4,7.4,42,0.00,,CLR,0.00,VWS V14.01,2013-01-24 16:01:00,
2013-01-24 11:06:00,18.5,-1.3,30.62,North,0,3.8,7.4,41,0.00,,CLR,0.00,VWS V14.01,2013-01-24 16:06:00,
2013-01-24 11:11:00,19.6,-0.3,30.62,NNE,22,3.4,4.7,41,0.00,,CLR,0.00,VWS V14.01,2013-01-24 16:11:00,
2013-01-24 11:16:00,20.1,-0.3,30.65,NNE,22,2.7,5.6,40,0.00,,CLR,0.00,VWS V14.01,2013-01-24 16:16:00,
2013-01-24 11:21:00,19.8,-1.2,30.65,WNW,292,4.3,6.0,39,0.00,,CLR,0.00,VWS V14.01,2013-01-24 16:21:00,
2013-01-24 11:26:00,19.9,-1.6,30.65,NNW,338,4.9,6.0,38,0.00,,CLR,0.00,VWS V14.01,2013-01-24 16:26:00,
2013-01-24 11:31:00,20.5,-1.1,30.65,NNW,338,4.3,6.0,38,0.00,,CLR,0.00,VWS V14.01,2013-01-24 16:31:00,
2013-01-24 11:36:00,21.9,-0.3,30.65,WNW,292,3.1,6.0,37,0.00,,CLR,0.00,VWS V14.01,2013-01-24 16:36:00,
2013-01-24 11:41:00,21.2,-1.0,30.65,WNW,292,4.9,6.0,37,0.00,,CLR,0.00,VWS V14.01,2013-01-24 16:41:00,
2013-01-24 11:46:00,21.0,-1.7,30.62,NNW,338,5.4,6.0,36,0.00,,CLR,0.00,VWS V14.01,2013-01-24 16:46:00,
2013-01-24 11:51:00,21.6,-1.2,30.62,North,0,4.0,6.0,36,0.00,,CLR,0.00,VWS V14.01,2013-01-24 16:51:00,
2013-01-24 11:56:00,20.8,-1.9,30.62,WNW,292,5.8,6.5,36,0.00,,CLR,0.00,VWS V14.01,2013-01-24 16:56:00,
2013-01-24 12:00:00,21.7,-2.3,30.62,North,0,4.9,7.2,34,0.00,,CLR,0.00,VWS V14.01,2013-01-24 17:00:00,
2013-01-24 12:01:00,21.0,-1.7,30.62,NNW,338,5.4,6.5,36,0.00,,CLR,0.00,VWS V14.01,2013-01-24 17:01:00,
2013-01-24 12:06:00,20.8,-2.5,30.62,North,0,5.4,6.5,35,0.00,,CLR,0.00,VWS V14.01,2013-01-24 17:06:00,
2013-01-24 12:11:00,20.7,-2.7,30.62,NW,315,4.9,7.2,35,0.00,,CLR,0.00,VWS V14.01,2013-01-24 17:11:00,
2013-01-24 12:16:00,20.7,-2.7,30.62,West,270,6.0,7.2,35,0.00,,CLR,0.00,VWS V14.01,2013-01-24 17:16:00,
2013-01-24 12:21:00,20.5,-2.8,30.62,WNW,292,2.7,7.2,35,0.00,,CLR,0.00,VWS V14.01,2013-01-24 17:21:00,
2013-01-24 12:26:00,21.6,-1.9,30.62,NNW,338,4.0,7.2,35,0.00,,CLR,0.00,VWS V14.01,2013-01-24 17:26:00,
2013-01-24 12:31:00,21.7,-1.7,30.62,WNW,292,4.3,7.2,35,0.00,,CLR,0.00,VWS V14.01,2013-01-24 17:31:00,
2013-01-24 12:36:00,21.6,-2.5,30.62,NNW,338,3.1,7.2,34,0.00,,CLR,0.00,VWS V14.01,2013-01-24 17:36:00,
2013-01-24 12:41:00,21.9,-2.1,30.62,NNW,338,3.4,7.2,34,0.00,,CLR,0.00,VWS V14.01,2013-01-24 17:41:00,
2013-01-24 12:46:00,20.8,-3.1,30.65,NNW,338,6.5,7.2,34,0.00,,CLR,0.00,VWS V14.01,2013-01-24 17:46:00,
2013-01-24 12:51:00,21.4,-2.6,30.65,NNE,22,4.9,7.2,34,0.00,,CLR,0.00,VWS V14.01,2013-01-24 17:51:00,
2013-01-24 12:56:00,21.4,-2.6,30.65,NNE,22,4.0,7.2,34,0.00,,CLR,0.00,VWS V14.01,2013-01-24 17:56:00,
2013-01-24 13:00:00,24.3,-0.7,30.62,NW,315,2.2,6.5,33,0.00,,CLR,0.00,VWS V14.01,2013-01-24 18:00:00,
2013-01-24 13:01:00,21.9,-2.1,30.62,NNW,338,4.0,7.2,34,0.00,,CLR,0.00,VWS V14.01,2013-01-24 18:01:00,
2013-01-24 13:06:00,21.7,-2.3,30.62,North,0,3.4,7.2,34,0.00,,CLR,0.00,VWS V14.01,2013-01-24 18:06:00,
2013-01-24 13:12:00,22.5,-1.6,30.62,NNW,338,4.7,6.0,34,0.00,,CLR,0.00,VWS V14.01,2013-01-24 18:12:00,
2013-01-24 13:17:00,22.3,-1.8,30.62,NNW,338,5.4,6.3,34,0.00,,CLR,0.00,VWS V14.01,2013-01-24 18:17:00,
2013-01-24 13:22:00,22.3,-1.8,30.62,WNW,292,4.7,6.3,34,0.00,,CLR,0.00,VWS V14.01,2013-01-24 18:22:00,
2013-01-24 13:27:00,22.8,-1.3,30.62,NW,315,4.7,6.3,34,0.00,,CLR,0.00,VWS V14.01,2013-01-24 18:27:00,
2013-01-24 13:32:00,23.0,-1.2,30.65,NW,315,4.7,6.5,34,0.00,,CLR,0.00,VWS V14.01,2013-01-24 18:32:00,
2013-01-24 13:37:00,23.0,-1.2,30.65,NW,315,3.6,6.5,34,0.00,,CLR,0.00,VWS V14.01,2013-01-24 18:37:00,
2013-01-24 13:42:00,23.0,-1.8,30.65,NW,315,3.1,6.5,33,0.00,,CLR,0.00,VWS V14.01,2013-01-24 18:42:00,
2013-01-24 13:47:00,23.2,-1.6,30.62,NW,315,2.9,6.5,33,0.00,,CLR,0.00,VWS V14.01,2013-01-24 18:47:00,
2013-01-24 13:52:00,23.2,-1.6,30.62,NW,315,4.3,6.5,33,0.00,,CLR,0.00,VWS V14.01,2013-01-24 18:52:00,
2013-01-24 13:57:00,24.1,-0.9,30.62,NNW,338,3.6,6.5,33,0.00,,CLR,0.00,VWS V14.01,2013-01-24 18:57:00,
2013-01-24 14:00:00,23.2,-1.6,30.62,NNE,22,4.3,6.5,33,0.00,,CLR,0.00,VWS V14.01,2013-01-24 19:00:00,
2013-01-24 14:02:00,23.5,-1.3,30.62,NW,315,3.4,6.5,33,0.00,,CLR,0.00,VWS V14.01,2013-01-24 19:02:00,
2013-01-24 14:07:00,24.3,-0.7,30.62,NW,315,2.0,2.2,33,0.00,,CLR,0.00,VWS V14.01,2013-01-24 19:07:00,
2013-01-24 14:12:00,23.7,-1.8,30.62,NNW,338,3.4,5.6,32,0.00,,CLR,0.00,VWS V14.01,2013-01-24 19:12:00,
2013-01-24 14:17:00,23.5,-1.3,30.62,NW,315,3.8,5.6,33,0.00,,CLR,0.00,VWS V14.01,2013-01-24 19:17:00,
2013-01-24 14:22:00,23.2,-1.6,30.62,NNE,22,5.4,6.0,33,0.00,,CLR,0.00,VWS V14.01,2013-01-24 19:22:00,
2013-01-24 14:27:00,23.4,-1.5,30.62,NE,45,6.5,6.5,33,0.00,,CLR,0.00,VWS V14.01,2013-01-24 19:27:00,
2013-01-24 14:32:00,22.8,-2.0,30.59,NNW,338,4.0,6.5,33,0.00,,CLR,0.00,VWS V14.01,2013-01-24 19:32:00,
2013-01-24 14:37:00,22.1,-2.6,30.59,North,0,3.4,6.5,33,0.00,,CLR,0.00,VWS V14.01,2013-01-24 19:37:00,
2013-01-24 14:42:00,21.9,-2.8,30.59,NNW,338,4.7,6.5,33,0.00,,CLR,0.00,VWS V14.01,2013-01-24 19:42:00,
2013-01-24 14:47:00,22.5,-2.3,30.62,NNW,338,3.8,6.5,33,0.00,,CLR,0.00,VWS V14.01,2013-01-24 19:47:00,
2013-01-24 14:52:00,22.8,-2.0,30.62,NNE,22,3.6,6.5,33,0.00,,CLR,0.00,VWS V14.01,2013-01-24 19:52:00,
2013-01-24 14:57:00,22.5,-2.3,30.62,North,0,2.7,6.5,33,0.00,,CLR,0.00,VWS V14.01,2013-01-24 19:57:00,
2013-01-24 15:00:00,22.6,-2.1,30.62,NNE,22,2.9,4.9,33,0.00,,CLR,0.00,VWS V14.01,2013-01-24 20:00:00,
2013-01-24 15:02:00,22.5,-2.3,30.62,North,0,3.4,6.5,33,0.00,,CLR,0.00,VWS V14.01,2013-01-24 20:02:00,
2013-01-24 15:07:00,23.2,-1.6,30.62,NW,315,3.4,4.9,33,0.00,,CLR,0.00,VWS V14.01,2013-01-24 20:07:00,
2013-01-24 15:12:00,22.6,-2.1,30.62,NNW,338,2.5,4.9,33,0.00,,CLR,0.00,VWS V14.01,2013-01-24 20:12:00,
2013-01-24 15:17:00,23.0,-1.8,30.62,NNW,338,3.1,4.9,33,0.00,,CLR,0.00,VWS V14.01,2013-01-24 20:17:00,
2013-01-24 15:23:00,24.1,-0.9,30.62,NNW,338,3.6,4.9,33,0.00,,CLR,0.00,VWS V14.01,2013-01-24 20:23:00,
2013-01-24 15:28:00,23.9,-1.7,30.62,North,0,2.0,4.9,32,0.00,,CLR,0.00,VWS V14.01,2013-01-24 20:28:00,
2013-01-24 15:33:00,23.7,-1.8,30.62,NNE,22,2.2,4.9,32,0.00,,CLR,0.00,VWS V14.01,2013-01-24 20:33:00,
2013-01-24 15:38:00,22.8,-2.0,30.62,NNW,338,2.0,4.9,33,0.00,,CLR,0.00,VWS V14.01,2013-01-24 20:38:00,
2013-01-24 15:43:00,23.2,-2.3,30.62,NNE,22,3.1,4.9,32,0.00,,CLR,0.00,VWS V14.01,2013-01-24 20:43:00,
2013-01-24 15:48:00,22.5,-2.3,30.62,NNE,22,3.4,4.9,33,0.00,,CLR,0.00,VWS V14.01,2013-01-24 20:48:00,
2013-01-24 15:53:00,22.6,-2.1,30.62,North,0,2.2,4.9,33,0.00,,CLR,0.00,VWS V14.01,2013-01-24 20:53:00,
2013-01-24 15:58:00,23.5,-1.3,30.62,NNE,22,2.0,4.9,33,0.00,,CLR,0.00,VWS V14.01,2013-01-24 20:58:00,
2013-01-24 16:00:00,8.8,-13.3,30.62,East,90,2.5,3.6,35,0.00,,CLR,0.00,VWS V14.01,2013-01-24 21:00:00,
2013-01-24 16:03:00,22.5,-2.3,30.62,NNE,22,2.5,4.9,33,0.00,,CLR,0.00,VWS V14.01,2013-01-24 21:03:00,
2013-01-24 16:08:00,22.5,-2.3,30.62,NNE,22,2.5,2.9,33,0.00,,CLR,0.00,VWS V14.01,2013-01-24 21:08:00,
2013-01-24 16:13:00,23.0,-1.8,30.62,NNE,22,2.0,2.9,33,0.00,,CLR,0.00,VWS V14.01,2013-01-24 21:13:00,
2013-01-24 16:18:00,21.9,-2.8,30.62,North,0,2.0,2.9,33,0.00,,CLR,0.00,VWS V14.01,2013-01-24 21:18:00,
2013-01-24 16:23:00,20.7,-3.9,30.62,NNE,22,2.2,2.9,33,0.00,,CLR,0.00,VWS V14.01,2013-01-24 21:23:00,
2013-01-24 16:28:00,19.2,-4.5,30.62,NNE,22,2.9,2.9,34,0.00,,CLR,0.00,VWS V14.01,2013-01-24 21:28:00,
2013-01-24 16:33:00,17.1,-6.5,30.65,NNE,22,3.6,3.6,34,0.00,,CLR,0.00,VWS V14.01,2013-01-24 21:33:00,
2013-01-24 16:38:00,16.5,-6.9,30.65,NNE,22,2.7,3.6,34,0.00,,CLR,0.00,VWS V14.01,2013-01-24 21:38:00,
2013-01-24 16:43:00,14.4,-8.3,30.65,NNE,22,2.2,3.6,35,0.00,,CLR,0.00,VWS V14.01,2013-01-24 21:43:00,
2013-01-24 16:48:00,13.1,-9.4,30.65,NE,45,2.0,3.6,35,0.00,,CLR,0.00,VWS V14.01,2013-01-24 21:48:00,
2013-01-24 16:53:00,11.7,-10.7,30.65,ENE,68,2.5,3.6,35,0.00,,CLR,0.00,VWS V14.01,2013-01-24 21:53:00,
2013-01-24 16:58:00,9.9,-12.3,30.65,East,90,2.7,3.6,35,0.00,,CLR,0.00,VWS V14.01,2013-01-24 21:58:00,
2013-01-24 17:00:00,4.1,-17.5,30.59,SSW,202,1.3,3.6,35,0.00,,CLR,0.00,VWS V14.01,2013-01-24 22:00:00,
2013-01-24 17:03:00,9.3,-12.8,30.62,East,90,2.5,3.6,35,0.00,,CLR,0.00,VWS V14.01,2013-01-24 22:03:00,
2013-01-24 17:08:00,8.8,-13.3,30.62,East,90,2.5,2.5,35,0.00,,CLR,0.00,VWS V14.01,2013-01-24 22:08:00,
2013-01-24 17:13:00,8.4,-13.6,30.62,East,90,2.5,2.7,35,0.00,,CLR,0.00,VWS V14.01,2013-01-24 22:13:00,
2013-01-24 17:18:00,8.2,-13.8,30.62,East,90,2.5,2.9,35,0.00,,CLR,0.00,VWS V14.01,2013-01-24 22:18:00,
2013-01-24 17:23:00,7.9,-14.1,30.62,ENE,68,2.9,2.9,35,0.00,,CLR,0.00,VWS V14.01,2013-01-24 22:23:00,
2013-01-24 17:28:00,7.7,-14.2,30.62,ENE,68,3.4,3.4,35,0.00,,CLR,0.00,VWS V14.01,2013-01-24 22:28:00,
2013-01-24 17:33:00,7.2,-14.7,30.62,East,90,3.6,3.6,35,0.00,,CLR,0.00,VWS V14.01,2013-01-24 22:33:00,
2013-01-24 17:39:00,7.0,-14.9,30.62,East,90,2.9,3.6,35,0.00,,CLR,0.00,VWS V14.01,2013-01-24 22:39:00,
2013-01-24 17:44:00,6.4,-15.4,30.62,East,90,2.5,3.6,35,0.00,,CLR,0.00,VWS V14.01,2013-01-24 22:44:00,
2013-01-24 17:49:00,6.1,-15.7,30.59,East,90,2.5,3.6,35,0.00,,CLR,0.00,VWS V14.01,2013-01-24 22:49:00,
2013-01-24 17:54:00,5.4,-16.3,30.59,East,90,0.9,3.6,35,0.00,,CLR,0.00,VWS V14.01,2013-01-24 22:54:00,
2013-01-24 17:59:00,4.3,-17.3,30.59,East,90,0.0,3.6,35,0.00,,CLR,0.00,VWS V14.01,2013-01-24 22:59:00,
2013-01-24 18:00:00,2.8,-18.6,30.62,South,180,0.0,2.7,35,0.00,,CLR,0.00,VWS V14.01,2013-01-24 23:00:00,
2013-01-24 18:04:00,4.1,-17.5,30.59,SW,225,2.2,3.6,35,0.00,,CLR,0.00,VWS V14.01,2013-01-24 23:04:00,
2013-01-24 18:09:00,3.9,-17.6,30.59,SSW,202,0.0,1.3,35,0.00,,CLR,0.00,VWS V14.01,2013-01-24 23:09:00,
2013-01-24 18:14:00,3.7,-17.8,30.59,SSW,202,0.0,1.3,35,0.00,,CLR,0.00,VWS V14.01,2013-01-24 23:14:00,
2013-01-24 18:19:00,3.4,-18.1,30.59,SSW,202,0.0,1.3,35,0.00,,CLR,0.00,VWS V14.01,2013-01-24 23:19:00,
2013-01-24 18:24:00,3.2,-18.3,30.59,East,90,0.0,1.3,35,0.00,,CLR,0.00,VWS V14.01,2013-01-24 23:24:00,
2013-01-24 18:29:00,3.4,-18.1,30.59,ESE,112,0.9,1.3,35,0.00,,CLR,0.00,VWS V14.01,2013-01-24 23:29:00,
2013-01-24 18:34:00,3.6,-18.0,30.59,SE,135,0.0,1.3,35,0.00,,CLR,0.00,VWS V14.01,2013-01-24 23:34:00,
2013-01-24 18:39:00,3.6,-18.0,30.59,South,180,1.3,2.0,35,0.00,,CLR,0.00,VWS V14.01,2013-01-24 23:39:00,
2013-01-24 18:44:00,3.2,-18.3,30.59,SSE,158,0.0,2.0,35,0.00,,CLR,0.00,VWS V14.01,2013-01-24 23:44:00,
2013-01-24 18:49:00,3.2,-18.3,30.59,SSE,158,0.0,2.0,35,0.00,,CLR,0.00,VWS V14.01,2013-01-24 23:49:00,
2013-01-24 18:54:00,3.2,-18.3,30.59,South,180,1.3,2.0,35,0.00,,CLR,0.00,VWS V14.01,2013-01-24 23:54:00,
2013-01-24 18:59:00,3.6,-18.0,30.59,South,180,2.5,2.7,35,0.00,,CLR,0.00,VWS V14.01,2013-01-24 23:59:00,
2013-01-24 19:00:00,4.5,-17.1,30.62,SSE,158,0.0,2.9,35,0.00,,CLR,0.00,VWS V14.01,2013-01-25 00:00:00,
2013-01-24 19:04:00,3.4,-18.1,30.62,South,180,0.0,2.7,35,0.00,,CLR,0.00,VWS V14.01,2013-01-25 00:04:00,
2013-01-24 19:09:00,2.8,-18.6,30.62,South,180,0.0,0.0,35,0.00,,CLR,0.00,VWS V14.01,2013-01-25 00:09:00,
2013-01-24 19:14:00,3.0,-18.4,30.62,SSW,202,1.3,2.9,35,0.00,,CLR,0.00,VWS V14.01,2013-01-25 00:14:00,
2013-01-24 19:19:00,2.8,-18.6,30.59,SW,225,2.5,2.9,35,0.00,,CLR,0.00,VWS V14.01,2013-01-25 00:19:00,
2013-01-24 19:24:00,3.2,-18.3,30.59,SW,225,1.1,2.9,35,0.00,,CLR,0.00,VWS V14.01,2013-01-25 00:24:00,
2013-01-24 19:29:00,3.2,-18.3,30.59,SSW,202,0.0,2.9,35,0.00,,CLR,0.00,VWS V14.01,2013-01-25 00:29:00,
2013-01-24 19:35:00,3.2,-18.3,30.62,SSW,202,0.0,2.9,35,0.00,,CLR,0.00,VWS V14.01,2013-01-25 00:35:00,
2013-01-24 19:40:00,3.2,-18.3,30.62,SSE,158,2.5,2.9,35,0.00,,CLR,0.00,VWS V14.01,2013-01-25 00:40:00,
2013-01-24 19:45:00,3.2,-18.3,30.62,SSE,158,2.0,2.9,35,0.00,,CLR,0.00,VWS V14.01,2013-01-25 00:45:00,
2013-01-24 19:50:00,3.7,-17.8,30.62,SSE,158,2.0,2.9,35,0.00,,CLR,0.00,VWS V14.01,2013-01-25 00:50:00,
2013-01-24 19:55:00,4.3,-17.3,30.62,SE,135,1.1,2.9,35,0.00,,CLR,0.00,VWS V14.01,2013-01-25 00:55:00,
2013-01-24 20:00:00,4.3,-17.3,30.62,SE,135,1.3,2.9,35,0.00,,CLR,0.00,VWS V14.01,2013-01-25 01:00:00,
2013-01-24 20:05:00,4.5,-17.1,30.62,ESE,112,0.0,2.9,35,0.00,,CLR,0.00,VWS V14.01,2013-01-25 01:05:00,
2013-01-24 20:10:00,4.5,-17.1,30.62,SSE,158,0.0,1.3,35,0.00,,CLR,0.00,VWS V14.01,2013-01-25 01:10:00,
2013-01-24 20:15:00,4.8,-16.8,30.62,SSE,158,1.6,1.6,35,0.00,,CLR,0.00,VWS V14.01,2013-01-25 01:15:00,
2013-01-24 20:20:00,5.0,-16.7,30.62,ESE,112,1.6,1.6,35,0.00,,CLR,0.00,VWS V14.01,2013-01-25 01:20:00,
2013-01-24 20:25:00,5.4,-16.3,30.62,ESE,112,1.3,2.2,35,0.00,,CLR,0.00,VWS V14.01,2013-01-25 01:25:00,
2013-01-24 20:30:00,5.5,-16.2,30.62,ESE,112,0.0,2.2,35,0.00,,CLR,0.00,VWS V14.01,2013-01-25 01:30:00,
2013-01-24 20:35:00,5.5,-16.2,30.59,East,90,0.9,2.2,35,0.00,,CLR,0.00,VWS V14.01,2013-01-25 01:35:00,
2013-01-24 20:41:00,5.7,-16.0,30.59,East,90,0.0,2.2,35,0.00,,CLR,0.00,VWS V14.01,2013-01-25 01:41:00,
2013-01-24 20:46:00,5.5,-16.2,30.59,East,90,0.0,2.2,35,0.00,,CLR,0.00,VWS V14.01,2013-01-25 01:46:00,
2013-01-24 20:51:00,5.5,-16.2,30.59,South,180,0.0,2.2,35,0.00,,CLR,0.00,VWS V14.01,2013-01-25 01:51:00,
2013-01-24 20:56:00,5.9,-15.9,30.59,ESE,112,1.3,2.2,35,0.00,,CLR,0.00,VWS V14.01,2013-01-25 01:56:00,
2013-01-24 21:00:00,7.7,-14.2,30.59,SSW,202,2.0,3.1,35,0.00,,CLR,0.00,VWS V14.01,2013-01-25 02:00:00,
2013-01-24 21:01:00,5.9,-15.9,30.59,SSE,158,0.0,2.2,35,0.00,,CLR,0.00,VWS V14.01,2013-01-25 02:01:00,
2013-01-24 21:06:00,6.1,-15.7,30.59,SSE,158,1.3,2.2,35,0.00,,CLR,0.00,VWS V14.01,2013-01-25 02:06:00,
2013-01-24 21:11:00,6.1,-15.7,30.59,SSE,158,1.6,1.6,35,0.00,,CLR,0.00,VWS V14.01,2013-01-25 02:11:00,
2013-01-24 21:16:00,6.3,-15.5,30.59,SSE,158,0.0,2.0,35,0.00,,CLR,0.00,VWS V14.01,2013-01-25 02:16:00,
2013-01-24 21:22:00,6.3,-15.5,30.59,South,180,1.6,2.0,35,0.00,,CLR,0.00,VWS V14.01,2013-01-25 02:22:00,
2013-01-24 21:27:00,6.4,-15.4,30.59,SSE,158,2.2,2.5,35,0.00,,CLR,0.00,VWS V14.01,2013-01-25 02:27:00,
2013-01-24 21:32:00,6.4,-15.4,30.59,SSW,202,1.1,2.5,35,0.00,,CLR,0.00,VWS V14.01,2013-01-25 02:32:00,
2013-01-24 21:37:00,6.8,-15.1,30.59,SW,225,1.6,2.5,35,0.00,,CLR,0.00,VWS V14.01,2013-01-25 02:37:00,
2013-01-24 21:42:00,6.8,-15.1,30.59,SSE,158,2.2,2.5,35,0.00,,CLR,0.00,VWS V14.01,2013-01-25 02:42:00,
2013-01-24 21:47:00,7.0,-14.9,30.56,SSE,158,2.7,2.7,35,0.00,,CLR,0.00,VWS V14.01,2013-01-25 02:47:00,
2013-01-24 21:52:00,7.2,-14.7,30.56,SSW,202,1.3,3.1,35,0.00,,CLR,0.00,VWS V14.01,2013-01-25 02:52:00,
2013-01-24 21:57:00,7.5,-14.4,30.56,SSW,202,2.5,3.1,35,0.00,,CLR,0.00,VWS V14.01,2013-01-25 02:57:00,
2013-01-24 22:00:00,9.3,-12.8,30.56,SE,135,3.1,4.3,35,0.00,,CLR,0.00,VWS V14.01,2013-01-25 03:00:00,
2013-01-24 22:02:00,7.7,-14.2,30.59,SSW,202,2.0,3.1,35,0.00,,CLR,0.00,VWS V14.01,2013-01-25 03:02:00,
2013-01-24 22:07:00,7.7,-14.2,30.59,SSW,202,2.0,3.1,35,0.00,,CLR,0.00,VWS V14.01,2013-01-25 03:07:00,
2013-01-24 22:12:00,7.9,-14.1,30.59,South,180,2.9,3.1,35,0.00,,CLR,0.00,VWS V14.01,2013-01-25 03:12:00,
2013-01-24 22:17:00,7.9,-14.1,30.56,South,180,2.0,3.1,35,0.00,,CLR,0.00,VWS V14.01,2013-01-25 03:17:00,
2013-01-24 22:22:00,8.1,-13.9,30.56,SSE,158,2.0,3.1,35,0.00,,CLR,0.00,VWS V14.01,2013-01-25 03:22:00,
2013-01-24 22:27:00,8.1,-13.9,30.56,SSE,158,2.5,3.1,35,0.00,,CLR,0.00,VWS V14.01,2013-01-25 03:27:00,
2013-01-24 22:32:00,8.1,-13.9,30.56,SE,135,0.9,3.1,35,0.00,,CLR,0.00,VWS V14.01,2013-01-25 03:32:00,
2013-01-24 22:37:00,8.4,-13.6,30.56,SE,135,2.7,3.1,35,0.00,,CLR,0.00,VWS V14.01,2013-01-25 03:37:00,
2013-01-24 22:42:00,8.6,-13.4,30.56,SE,135,2.7,3.1,35,0.00,,CLR,0.00,VWS V14.01,2013-01-25 03:42:00,
2013-01-24 22:47:00,8.8,-13.3,30.53,SE,135,3.4,4.3,35,0.00,,CLR,0.00,VWS V14.01,2013-01-25 03:47:00,
2013-01-24 22:52:00,8.8,-13.3,30.53,SE,135,2.9,4.3,35,0.00,,CLR,0.00,VWS V14.01,2013-01-25 03:52:00,
2013-01-24 22:57:00,9.0,-13.1,30.53,ESE,112,3.4,4.3,35,0.00,,CLR,0.00,VWS V14.01,2013-01-25 03:57:00,
2013-01-24 23:00:00,9.9,-12.3,30.53,SSE,158,4.0,7.2,35,0.00,,CLR,0.00,VWS V14.01,2013-01-25 04:00:00,
2013-01-24 23:02:00,9.1,-12.9,30.56,ESE,112,2.5,4.3,35,0.00,,CLR,0.00,VWS V14.01,2013-01-25 04:02:00,
2013-01-24 23:07:00,9.3,-12.8,30.56,SE,135,3.1,3.1,35,0.00,,CLR,0.00,VWS V14.01,2013-01-25 04:07:00,
2013-01-24 23:12:00,9.3,-12.8,30.56,SE,135,4.9,5.6,35,0.00,,CLR,0.00,VWS V14.01,2013-01-25 04:12:00,
2013-01-24 23:17:00,9.3,-12.8,30.56,SSE,158,6.0,6.5,35,0.00,,CLR,0.00,VWS V14.01,2013-01-25 04:17:00,
2013-01-24 23:22:00,9.5,-12.6,30.56,SE,135,4.0,7.2,35,0.00,,CLR,0.00,VWS V14.01,2013-01-25 04:22:00,
2013-01-24 23:27:00,9.5,-12.6,30.56,SSE,158,4.0,7.2,35,0.00,,CLR,0.00,VWS V14.01,2013-01-25 04:27:00,
2013-01-24 23:32:00,9.5,-12.6,30.56,SSE,158,3.4,7.2,35,0.00,,CLR,0.00,VWS V14.01,2013-01-25 04:32:00,
2013-01-24 23:37:00,9.5,-12.6,30.56,South,180,4.3,7.2,35,0.00,,CLR,0.00,VWS V14.01,2013-01-25 04:37:00,
2013-01-24 23:42:00,9.7,-12.5,30.56,South,180,4.9,7.2,35,0.00,,CLR,0.00,VWS V14.01,2013-01-25 04:42:00,
2013-01-24 23:47:00,9.7,-12.5,30.56,SSE,158,4.3,7.2,35,0.00,,CLR,0.00,VWS V14.01,2013-01-25 04:47:00,
2013-01-24 23:52:00,9.7,-12.5,30.56,SSE,158,4.0,7.2,35,0.00,,CLR,0.00,VWS V14.01,2013-01-25 04:52:00,
2013-01-24 23:57:00,9.7,-12.5,30.56,SSE,158,4.3,7.2,35,0.00,,CLR,0.00,VWS V14.01,2013-01-25 04:57:00,